Location: Trani
(41.2830°N, 16.4170°E)
Time: 17:12:08
(UTC+02:00)

Envisat - Visible Passes

Search period start: 24 July 2021 00:00
Search period end: 03 August 2021 00:00
Orbit: 764 x 766 km, 98.1° (Epoch: 23 July)

Date Brightness Start Highest point End Pass type
(mag) Time Alt. Az. Time Alt. Az. Time Alt. Az.
24 Jul 5.7 05:05:32 10° NE 05:08:55 18° E 05:12:17 10° SE visible
27 Jul 5.8 04:54:45 10° ENE 04:57:18 14° E 04:59:51 10° ESE visible
30 Jul 6.2 04:44:50 10° ENE 04:45:40 10° E 04:46:32 10° E visible
01 Aug 5.6 05:07:44 10° NE 05:11:20 19° E 05:14:55 10° SE visible
